[[{"header":{"parameterUnit":"m.s-1","parameterCategory":1,"la1":30.2991,"la2":30.254,"lo1":-89.0895,"lo2":-89.0444,"dy":0.0017,"dx":0.0017,"nx":28,"ny":28,"refTime":"2026-01-02T03:00:00:Z","depth":0,"parameterNumber":2,"parameterNumberName":"U-component_of_WINDS"},"data":[0,0,0,0,0,0,0,0,0,0,0,0,0,0,0,0,0,0,0,0,0,0,0,0,0,0,0,0,0,0,0,0,0,0,0,0,0,0,0,0,0,0,0,0,0,0,0,0,0,0,0,0,0,0,0,0,0,0,0.2855,0.2855,0,0.2916,0.2916,0.2917,0.2944,0.2943,0.2943,0.2943,0.3009,0.3011,0.3013,0,0,0,0,0,0,0,0,0,0,0,0,0,0.2764,0.2766,0.2854,0.2855,0.2856,0.2916,0.2916,0.2917,0.2944,0.2943,0.2943,0.2943,0.3009,0.3011,0.3013,0,0,0,0,0,0,0,0,0,0,0,0,0,0.2812,0.2766,0.2854,0.2876,0.2879,0.2915,0.2916,0.2917,0.2944,0.2943,0.2943,0.2943,0.3008,0.3011,0.3013,0.3034,0,0,0.3022,0.3023,0,0,0,0,0,0,0,0,0.2809,0.2816,0.2872,0.2875,0.2878,0.2922,0.2909,0.2957,0.2944,0.2919,0.2943,0.2943,0.298,0.2985,0.2997,0.3037,0.304,0.3022,0.3024,0.3025,0.3026,0,0,0,0,0,0,0,0.2806,0.2813,0.2879,0.2873,0.2876,0.2884,0.2891,0.2918,0.295,0.2921,0.2923,0.293,0.2982,0.2995,0.2999,0.3041,0.3022,0.3024,0.3026,0.3027,0.3101,0.3102,0,0,0,0,0,0,0.2799,0.281,0.2877,0.2881,0.2842,0.2886,0.2893,0.2908,0.295,0.2956,0.293,0.2931,0.299,0.2996,0.3002,0.3029,0.3025,0.3027,0.3029,0.3101,0.3101,0.3102,0,0,0,0,0,0,0.2797,0.2804,0.2874,0.2846,0.2855,0.2888,0.2904,0.2909,0.2922,0.2956,0.2963,0.2937,0.299,0.2998,0.3026,0.3032,0.3029,0.3031,0.3101,0.3101,0.3102,0.3084,0,0,0,0,0,0,0.2794,0.2803,0.2811,0.2846,0.2857,0.2896,0.2904,0.291,0.2926,0.2928,0.2964,0.297,0.2991,0.3021,0.3028,0.3035,0.3033,0.31,0.3101,0.3102,0.3084,0.3083,0.3083,0,0,0,0,0,0.2791,0.2803,0.2811,0.2819,0.2866,0.2896,0.2903,0.2925,0.2926,0.2935,0.2957,0.2969,0.303,0.3024,0.3032,0.304,0.31,0.3101,0.3101,0.3084,0.3083,0.3083,0,0,0,0,0,0,0.2769,0.2808,0.2817,0.2841,0.2865,0.2901,0.2911,0.2923,0.2948,0.2949,0.2976,0.2984,0.301,0.3028,0.3021,0.3063,0.3066,0.3068,0.305,0.305,0.3049,0.3045,0.3036,0,0,0,0,0,0.2767,0.2787,0.2821,0.2839,0.285,0.2879,0.2893,0.2908,0.2934,0.2944,0.2969,0.2995,0.302,0.3036,0.3061,0.3087,0.3096,0.3096,0.3096,0.3095,0.3097,0.3114,0.3115,0.3104,0.3104,0.3104,0,0,0.2763,0.2787,0.2798,0.2835,0.2855,0.2877,0.2887,0.2909,0.2926,0.2948,0.2976,0.2995,0.3026,0.3053,0.3066,0.3069,0.3102,0.3096,0.3096,0.3098,0.3115,0.3116,0.3116,0.3105,0.3104,0.3104,0,0,0.2767,0.2786,0.2804,0.2824,0.2854,0.2873,0.2878,0.2912,0.2925,0.2953,0.2971,0.2992,0.3034,0.3055,0.3072,0.3085,0.3098,0.3093,0.3091,0.3106,0.3107,0.3108,0.3114,0.3116,0.3094,0.3094,0.3094,0,0.2758,0.279,0.2812,0.2833,0.285,0.287,0.2889,0.2908,0.2945,0.2957,0.2959,0.3013,0.3036,0.3069,0.3072,0.3084,0.3091,0.3089,0.3105,0.3106,0.3108,0.3113,0.3115,0.3093,0.3094,0.3094,0.3094,0,0.2779,0.2801,0.2812,0.2846,0.2864,0.2884,0.2911,0.2926,0.294,0.2959,0.2988,0.3016,0.3047,0.3056,0.307,0.3092,0.3093,0.31,0.3103,0.3107,0.3113,0.3116,0.3092,0.3093,0.3093,0.3093,0,0,0.277,0.2817,0.2821,0.2837,0.2872,0.2891,0.2912,0.2942,0.2955,0.2981,0.3001,0.3036,0.3043,0.3062,0.3079,0.3092,0.3103,0.3098,0.3099,0.3099,0.313,0.3125,0.3127,0.3111,0.3112,0.3112,0.3128,0,0.2779,0.2817,0.2839,0.2869,0.289,0.2911,0.293,0.2954,0.2973,0.2995,0.3017,0.3042,0.3048,0.306,0.3075,0.3098,0.3109,0.3097,0.3132,0.3132,0.3123,0.313,0.3125,0.3138,0.313,0.3131,0.3131,0,0.2794,0.2819,0.2851,0.2885,0.2895,0.2911,0.2941,0.2961,0.299,0.3003,0.3024,0.3041,0.3067,0.3068,0.3105,0.3096,0.3111,0.3125,0.3127,0.3131,0.3132,0.3136,0.3143,0.3145,0.3135,0.3134,0.3134,0,0.2786,0.2827,0.2851,0.2865,0.2905,0.2916,0.2934,0.2963,0.2979,0.3006,0.3018,0.3047,0.3063,0.3086,0.3111,0.311,0.3146,0.3149,0.3159,0.3158,0.3165,0.3165,0.3176,0.3174,0.3174,0.3174,0.3174,0,0.2794,0.2813,0.2848,0.2863,0.2886,0.2911,0.2933,0.2952,0.2978,0.2999,0.3018,0.3038,0.3069,0.3092,0.3112,0.314,0.3147,0.316,0.3165,0.3158,0.3157,0.3169,0.3169,0.3175,0.3174,0.3174,0.3174,0,0.2788,0.2812,0.284,0.2876,0.2886,0.2901,0.2932,0.2949,0.2969,0.2995,0.3002,0.3034,0.3063,0.309,0.3129,0.3142,0.3171,0.3177,0.3161,0.3164,0.3172,0.3171,0.3192,0.3196,0.319,0.319,0.319,0,0.2791,0.2807,0.2844,0.2859,0.2875,0.2899,0.2916,0.2942,0.296,0.2995,0.3007,0.3037,0.3063,0.3109,0.3136,0.3167,0.3174,0.318,0.3179,0.3172,0.3176,0.3175,0.3177,0.3179,0.3179,0.3179,0.3179,0,0.2796,0.2807,0.2831,0.2859,0.2879,0.2903,0.2927,0.2939,0.2969,0.2989,0.3018,0.3038,0.3077,0.3108,0.3141,0.3161,0.3176,0.3179,0.3183,0.3177,0.3167,0.3173,0.316,0.3178,0.3178,0.3179,0.3179,0.3179,0.2795,0.281,0.2839,0.2865,0.2886,0.2909,0.2926,0.2949,0.2973,0.3007,0.3021,0.3051,0.3082,0.3128,0.3148,0.3173,0.3176,0.3182,0.3183,0.3184,0.3183,0.3162,0.3179,0.3179,0.3179,0.3179,0.3179,0,0.2801,0.2821,0.2845,0.2878,0.2899,0.291,0.2938,0.2956,0.2981,0.3008,0.3033,0.3067,0.3097,0.3128,0.316,0.3174,0.3182,0.3182,0.3181,0.3186,0.3178,0.3172,0.3175,0.3175,0.3175,0.3175,0.3175,0.3175,0.2807,0.2833,0.2848,0.2885,0.2905,0.2934,0.2949,0.2971,0.2993,0.303,0.3055,0.3074,0.3103,0.3137,0.3166,0.3174,0.3186,0.3184,0.3194,0.3186,0.3186,0.3186,0.3181,0.3186,0.3186,0.32,0.32,0.32]},{"header":{"parameterUnit":"m.s-1","parameterCategory":1,"la1":30.2991,"la2":30.254,"lo1":-89.0895,"lo2":-89.0444,"dy":0.0017,"dx":0.0017,"nx":28,"ny":28,"refTime":"2026-01-02T03:00:00:Z","depth":0,"parameterNumber":3,"parameterNumberName":"V-component_of_WINDS"},"data":[0,0,0,0,0,0,0,0,0,0,0,0,0,0,0,0,0,0,0,0,0,0,0,0,0,0,0,0,0,0,0,0,0,0,0,0,0,0,0,0,0,0,0,0,0,0,0,0,0,0,0,0,0,0,0,0,0,0,3.5869,3.587,0,3.5922,3.5922,3.5923,3.5909,3.5908,3.5907,3.5906,3.5958,3.596,3.5962,0,0,0,0,0,0,0,0,0,0,0,0,0,3.5754,3.5757,3.5869,3.587,3.5871,3.5922,3.5922,3.5923,3.591,3.5908,3.5907,3.5906,3.5957,3.5959,3.5962,0,0,0,0,0,0,0,0,0,0,0,0,0,3.5805,3.5757,3.5869,3.587,3.5871,3.5922,3.5922,3.5923,3.591,3.5908,3.5907,3.5905,3.5956,3.5959,3.5963,3.6015,0,0,3.5973,3.5975,0,0,0,0,0,0,0,0,3.5802,3.5809,3.5869,3.587,3.5871,3.5907,3.5901,3.5954,3.591,3.5895,3.5906,3.5904,3.5942,3.5946,3.596,3.6018,3.602,3.5974,3.5976,3.5977,3.5978,0,0,0,0,0,0,0,3.5799,3.5807,3.589,3.587,3.5871,3.5867,3.5872,3.5911,3.5926,3.5896,3.5895,3.5902,3.5942,3.5956,3.5961,3.602,3.5974,3.5977,3.5979,3.598,3.6124,3.6126,0,0,0,0,0,0,3.5795,3.5804,3.5888,3.5891,3.5832,3.587,3.5876,3.5897,3.5926,3.5929,3.5903,3.5901,3.5951,3.5957,3.5962,3.6026,3.5977,3.598,3.5982,3.6122,3.6124,3.6126,0,0,0,0,0,0,3.5793,3.5803,3.5886,3.5848,3.5858,3.5874,3.5897,3.5899,3.5913,3.5931,3.5934,3.5915,3.595,3.5958,3.6002,3.6028,3.5982,3.5985,3.612,3.6123,3.6125,3.6154,0,0,0,0,0,0,3.5789,3.5802,3.5823,3.5848,3.586,3.5926,3.5899,3.5901,3.592,3.5918,3.5943,3.5946,3.5949,3.5997,3.6006,3.6032,3.5988,3.6118,3.6121,3.6124,3.6151,3.6157,3.6163,0,0,0,0,0,3.5785,3.5828,3.5824,3.5834,3.5887,3.5928,3.5934,3.5939,3.5922,3.5943,3.5954,3.5945,3.6023,3.6002,3.6011,3.6039,3.6116,3.612,3.6124,3.6148,3.6156,3.6163,0,0,0,0,0,0,3.5804,3.5832,3.5827,3.588,3.5902,3.5925,3.5952,3.5947,3.5973,3.597,3.5973,3.5979,3.6025,3.6036,3.6011,3.6091,3.6067,3.6073,3.6082,3.609,3.6096,3.6092,3.5991,0,0,0,0,0,3.5815,3.5847,3.5868,3.5912,3.5924,3.5936,3.5954,3.5955,3.5977,3.5986,3.6001,3.6022,3.6052,3.6071,3.6099,3.6152,3.6157,3.6175,3.6181,3.6186,3.6191,3.622,3.6229,3.6139,3.6139,3.6139,0,0,3.5836,3.5855,3.5875,3.5917,3.5934,3.5966,3.5944,3.5979,3.6002,3.5991,3.6035,3.6047,3.607,3.612,3.6142,3.613,3.6217,3.6191,3.6195,3.6198,3.6225,3.6234,3.6241,3.6142,3.6141,3.6141,0,0,3.5893,3.591,3.5949,3.5967,3.5993,3.6001,3.601,3.6035,3.6042,3.6086,3.6079,3.6106,3.6157,3.6175,3.619,3.6252,3.6245,3.6261,3.6293,3.6321,3.6328,3.6334,3.6357,3.6365,3.6266,3.6266,3.6266,0,3.5916,3.5965,3.5969,3.6005,3.6024,3.6016,3.6055,3.6072,3.6106,3.6118,3.6105,3.6169,3.6184,3.6237,3.6253,3.6265,3.6276,3.6259,3.6327,3.6333,3.6339,3.6361,3.6369,3.6268,3.6268,3.6268,3.6268,0,3.5993,3.6027,3.6055,3.609,3.6111,3.6148,3.6157,3.6178,3.6177,3.6186,3.6231,3.6249,3.6281,3.6293,3.6292,3.6346,3.6338,3.6326,3.6302,3.6349,3.637,3.6378,3.6271,3.627,3.627,3.6269,0,0,3.6064,3.6099,3.611,3.6125,3.6154,3.618,3.6216,3.6248,3.6266,3.6289,3.632,3.6363,3.6352,3.6369,3.637,3.6395,3.6444,3.6379,3.638,3.6391,3.6505,3.6515,3.6524,3.6438,3.644,3.6441,3.6503,0,3.6123,3.6189,3.6193,3.6252,3.6284,3.6276,3.6308,3.6329,3.6338,3.6365,3.6374,3.6405,3.6387,3.6398,3.6422,3.6433,3.6467,3.6428,3.6467,3.6468,3.6462,3.6535,3.6546,3.6603,3.6511,3.6512,3.6513,0,3.6201,3.6228,3.6291,3.6315,3.6328,3.6357,3.6387,3.6413,3.6436,3.644,3.646,3.6457,3.6494,3.6468,3.6519,3.6493,3.6508,3.6516,3.6518,3.6523,3.6494,3.6542,3.6621,3.663,3.6526,3.6525,3.6524,0,3.6248,3.6299,3.6343,3.6357,3.6386,3.6406,3.6419,3.644,3.6459,3.6484,3.6497,3.6525,3.6542,3.6563,3.6568,3.6549,3.6619,3.6594,3.6624,3.6624,3.664,3.6639,3.6723,3.6648,3.6648,3.6648,3.6648,0,3.6314,3.6353,3.6365,3.6392,3.6435,3.6439,3.6481,3.6492,3.6511,3.654,3.6534,3.6561,3.6566,3.6594,3.6597,3.6639,3.6646,3.665,3.6651,3.6651,3.6651,3.6663,3.6659,3.665,3.665,3.6649,3.6649,0,3.6374,3.6383,3.6431,3.6455,3.6461,3.6492,3.6512,3.6538,3.6546,3.6582,3.6591,3.6603,3.6636,3.6643,3.668,3.6683,3.6732,3.6729,3.6725,3.6725,3.6756,3.6753,3.6851,3.6865,3.678,3.6781,3.6781,0,3.6416,3.6446,3.6473,3.6492,3.6507,3.6538,3.6557,3.6562,3.6582,3.661,3.6632,3.6664,3.669,3.6742,3.6754,3.6783,3.678,3.6812,3.6784,3.6784,3.6782,3.678,3.6783,3.6818,3.6819,3.682,3.682,0,3.6491,3.6494,3.6523,3.6554,3.6577,3.6601,3.6624,3.664,3.6647,3.667,3.6704,3.6724,3.6763,3.6795,3.6824,3.6836,3.683,3.6829,3.6838,3.6839,3.6836,3.6839,3.6741,3.6827,3.6826,3.6826,3.6826,3.6825,3.6544,3.657,3.6593,3.6626,3.6643,3.6665,3.6691,3.6702,3.673,3.6764,3.6764,3.6801,3.6822,3.686,3.6874,3.6902,3.6892,3.6904,3.6907,3.6911,3.6914,3.6831,3.6907,3.6907,3.6907,3.6906,3.6906,0,3.6619,3.6633,3.6663,3.6696,3.6721,3.6713,3.6738,3.676,3.6792,3.6813,3.6839,3.6877,3.6908,3.6922,3.6952,3.6972,3.6969,3.6979,3.6979,3.6982,3.6921,3.6911,3.6981,3.6981,3.6981,3.6981,3.6981,3.6981,3.6661,3.6705,3.6711,3.6764,3.6778,3.6815,3.683,3.6849,3.6866,3.691,3.6935,3.6945,3.6963,3.6994,3.7021,3.7024,3.7036,3.7048,3.705,3.6993,3.6986,3.6979,3.6969,3.705,3.705,3.7108,3.7108,3.7109]}]]